Tracking 19490 objects as of 24-Jan-2019
HD Live streaming from Space Station
objects crossing your sky now

FENGYUN 1C DEB

Track FENGYUN 1C DEB now!
10-day predictions


NORAD ID: 30453
Int'l Code: 1999-025AFQ
Perigee: 761.9 km
Apogee: 957.6 km
Inclination: 99.0 °
Period: 102.0 minutes
Semi major axis: 7230 km
RCS: 0.0229 m2 (small)
Launch date: May 10, 1999
Source: People's Republic of China (PRC)
Launch site: Taiyaun Space Center, China (TSC)

Note: This is SATELLITE DEBRIS
aabbcc
Your satellite tracking list
Your tracking list is empty




NASA's NSSDC Master Catalog

Two Line Element Set (TLE):
1 30453U 99025AFQ 19023.69065844 +.00000428 +00000-0 +23732-3 0  9991
2 30453 099.0242 062.2212 0135363 177.5193 304.8414 14.11978641616517
Source of the keplerian elements: AFSPC